Weather History for Lakeville, MN

Change the Weather History Date:

Sunday, May 11, 2014

  Actual Average Record
Temperature  
Mean Temperature 56 °F -  
Max Temperature 69 °F 69 °F 86 °F (1961)
Min Temperature 42 °F 47 °F 6 °F (1998)
Degree Days  
Heating Degree Days 10    
Growing Degree Days 6 (Base 50)    
Moisture  
Dew Point 52 °F    
Average Humidity 85    
Maximum Humidity 100    
Minimum Humidity 60    
Precipitation  
Precipitation 0.70 in - - ()
Sea Level Pressure  
Sea Level Pressure 29.83 in    
Wind  
Wind Speed 3 mph (East)    
Max Wind Speed 15 mph    
Max Gust Speed 20 mph    
Visibility 7 miles    
Events Fog , Rain , Thunderstorm    
Averages and records for this station are not official NWS values.
T = Trace of Precipitation, MM = Missing Value Source: NWS Daily Summary

Daily Weather History Graph

Daily Weather History Graph

Search for Another Location

Airport:

Trip Planner

Search our weather history database for the weather conditions in past years. The results will help you decide how hot, cold, wet, or windy it might be!

Date:

Astronomy

May. 11, 2014 Rise Set
Actual Time 5:49 AM CDT 8:29 PM CDT
Civil Twilight 5:16 AM CDT 9:03 PM CDT
Nautical Twilight 4:34 AM CDT 9:45 PM CDT
Astronomical Twilight 3:46 AM CDT 10:34 PM CDT
Moon 5:18 PM CDT (5/11) 4:03 AM CDT (5/11)
Length of Visible Light 15h 46m
Length of Day
14h 40m
Waxing Gibbous, 89% of the Moon is Illuminated
May 11
Waxing Gibbous
May 14
Full
May 21
Last Quarter
May 28
New
Jun 5
First Quarter

Hourly Weather History & Observations

Time (CDT) Temp. Dew Point Humidity Pressure Visibility Wind Dir Wind Speed Gust Speed Precip Events Conditions
12:15 AM 50.0 °F 48.2 °F 94% 29.85 in 7.0 mi Calm Calm - N/A   Scattered Clouds
12:35 AM 48.2 °F 48.2 °F 100% 29.84 in 7.0 mi East 4.6 mph - N/A   Scattered Clouds
12:55 AM 48.2 °F 48.2 °F 100% 29.84 in 7.0 mi ESE 4.6 mph - N/A   Clear
1:15 AM 48.2 °F 48.2 °F 100% 29.84 in 5.0 mi Calm Calm - N/A   Clear
1:35 AM 46.4 °F 46.4 °F 100% 29.84 in 0.8 mi Calm Calm - N/A   Mist
1:55 AM 48.2 °F 46.4 °F 93% 29.84 in 2.0 mi Calm Calm - N/A   Clear
2:16 AM 48.2 °F 48.2 °F 100% 29.83 in 1.0 mi Calm Calm - N/A   Mist
2:35 AM 46.4 °F 46.4 °F 100% 29.83 in 0.2 mi Calm Calm - N/A Fog Fog
2:55 AM 46.4 °F 46.4 °F 100% 29.82 in 0.5 mi Calm Calm - N/A Fog Fog
3:15 AM 46.4 °F 46.4 °F 100% 29.82 in 1.8 mi Calm Calm - N/A   Mist
3:35 AM 46.4 °F 44.6 °F 93% 29.81 in 0.2 mi Calm Calm - N/A Fog Fog
3:55 AM 46.4 °F 46.4 °F 100% 29.82 in 0.2 mi Calm Calm - N/A Fog Fog
4:15 AM 46.4 °F 46.4 °F 100% 29.83 in 0.5 mi Calm Calm - N/A Fog Fog
4:35 AM 42.8 °F 42.8 °F 100% 29.83 in 0.2 mi Calm Calm - N/A Fog Fog
4:55 AM 42.8 °F 42.8 °F 100% 29.83 in 0.2 mi Calm Calm - N/A Fog Fog
5:15 AM 44.6 °F 44.6 °F 100% 29.83 in 1.0 mi Calm Calm - N/A   Mostly Cloudy
5:35 AM - - N/A% 29.84 in - Calm Calm - N/A   Unknown
5:55 AM 44.6 °F 44.6 °F 100% 29.84 in 2.0 mi Calm Calm - N/A   Mist
6:16 AM 46.4 °F 46.4 °F 100% 29.83 in 2.0 mi Calm Calm - N/A   Mist
6:35 AM 46.4 °F 46.4 °F 100% 29.84 in 4.0 mi Calm Calm - N/A   Mist
6:55 AM 46.4 °F 46.4 °F 100% 29.84 in 4.0 mi Calm Calm - N/A   Clear
7:15 AM 48.2 °F 48.2 °F 100% 29.85 in 4.0 mi Calm Calm - N/A   Clear
7:35 AM 48.2 °F 48.2 °F 100% 29.87 in 5.0 mi Calm Calm - N/A   Clear
7:55 AM 50.0 °F 50.0 °F 100% 29.86 in 7.0 mi Calm Calm - N/A   Clear
8:15 AM 51.8 °F 51.8 °F 100% 29.87 in 10.0 mi Calm Calm - N/A   Clear
8:35 AM 51.8 °F 51.8 °F 100% 29.87 in 10.0 mi Calm Calm - N/A   Clear
8:55 AM 53.6 °F 53.6 °F 100% 29.87 in 10.0 mi ESE 3.5 mph - N/A   Clear
9:15 AM 55.4 °F 51.8 °F 88% 29.87 in 10.0 mi Calm Calm - N/A   Clear
9:35 AM 55.4 °F 51.8 °F 88% 29.87 in 10.0 mi Calm Calm - N/A   Clear
9:55 AM 55.4 °F 51.8 °F 88% 29.88 in 10.0 mi Calm Calm - N/A   Clear
10:15 AM 57.2 °F 51.8 °F 82% 29.88 in 10.0 mi Calm Calm - N/A   Clear
10:35 AM 57.2 °F 51.8 °F 82% 29.87 in 10.0 mi North 3.5 mph - N/A   Clear
10:55 AM 57.2 °F 51.8 °F 82% 29.88 in 10.0 mi Calm Calm - N/A   Clear
11:15 AM 59.0 °F 53.6 °F 82% 29.86 in 10.0 mi NE 6.9 mph - N/A   Clear
11:35 AM 60.8 °F 53.6 °F 77% 29.89 in 10.0 mi SSE 6.9 mph - N/A   Clear
11:55 AM 60.8 °F 53.6 °F 77% 29.89 in 10.0 mi SSE 6.9 mph - N/A   Clear
12:15 PM 60.8 °F 53.6 °F 77% 29.90 in 10.0 mi SSE 8.1 mph - N/A   Clear
12:35 PM 60.8 °F 53.6 °F 77% 29.91 in 10.0 mi South 5.8 mph - N/A   Scattered Clouds
12:55 PM 60.8 °F 51.8 °F 72% 29.91 in 10.0 mi South 5.8 mph - N/A   Mostly Cloudy
1:15 PM 60.8 °F 53.6 °F 77% 29.90 in 10.0 mi SSE 3.5 mph - N/A   Mostly Cloudy
1:35 PM 62.6 °F 53.6 °F 72% 29.88 in 10.0 mi Calm Calm - N/A   Mostly Cloudy
1:56 PM 62.6 °F 53.6 °F 72% 29.87 in 10.0 mi ESE 3.5 mph - N/A   Overcast
2:15 PM 64.4 °F 53.6 °F 68% 29.87 in 10.0 mi East 4.6 mph - N/A   Mostly Cloudy
2:36 PM 64.4 °F 53.6 °F 68% 29.87 in 10.0 mi ENE 5.8 mph - N/A   Mostly Cloudy
2:55 PM 66.2 °F 53.6 °F 64% 29.86 in 10.0 mi ENE 4.6 mph - N/A   Mostly Cloudy
3:15 PM 68.0 °F 53.6 °F 60% 29.85 in 10.0 mi East 6.9 mph - N/A   Scattered Clouds
3:35 PM 66.2 °F 53.6 °F 64% 29.85 in 10.0 mi East 8.1 mph - N/A   Mostly Cloudy
3:55 PM 66.2 °F 53.6 °F 64% 29.84 in 10.0 mi ENE 10.4 mph - N/A   Overcast
4:15 PM 68.0 °F 53.6 °F 60% 29.84 in 10.0 mi East 10.4 mph - N/A   Mostly Cloudy
4:35 PM 66.2 °F 53.6 °F 64% 29.83 in 10.0 mi ENE 11.5 mph 16.1 mph N/A   Mostly Cloudy
4:55 PM 66.2 °F 53.6 °F 64% 29.82 in 10.0 mi ENE 10.4 mph - N/A   Mostly Cloudy
5:15 PM 66.2 °F 53.6 °F 64% 29.81 in 10.0 mi ENE 11.5 mph - N/A   Mostly Cloudy
5:35 PM 69.8 °F 55.4 °F 60% 29.80 in 10.0 mi East 12.7 mph - N/A   Mostly Cloudy
5:55 PM 66.2 °F 55.4 °F 68% 29.79 in 10.0 mi East 12.7 mph 18.4 mph N/A   Mostly Cloudy
6:15 PM 66.2 °F 55.4 °F 68% 29.80 in 10.0 mi East 8.1 mph - N/A   Overcast
6:35 PM 66.2 °F 55.4 °F 68% 29.79 in 10.0 mi East 8.1 mph - N/A   Overcast
6:55 PM 66.2 °F 55.4 °F 68% 29.77 in 10.0 mi ENE 10.4 mph - N/A   Mostly Cloudy
7:16 PM 64.4 °F 55.4 °F 73% 29.77 in 10.0 mi East 8.1 mph - N/A   Scattered Clouds
7:35 PM 64.4 °F 55.4 °F 73% 29.77 in 10.0 mi East 9.2 mph - N/A   Overcast
7:55 PM 64.4 °F 55.4 °F 73% 29.77 in 10.0 mi East 6.9 mph - N/A   Overcast
8:15 PM 62.6 °F 55.4 °F 77% 29.77 in 10.0 mi East 6.9 mph - N/A   Overcast
8:35 PM 62.6 °F 55.4 °F 77% 29.77 in 5.0 mi East 6.9 mph - 0.03 in Rain Rain
8:55 PM 60.8 °F 55.4 °F 82% 29.76 in 10.0 mi ENE 3.5 mph - 0.03 in Thunderstorm Thunderstorm
9:15 PM 60.8 °F 55.4 °F 82% 29.78 in 7.0 mi East 5.8 mph - 0.02 in Rain , Thunderstorm Thunderstorms and Rain
9:36 PM 60.8 °F 55.4 °F 82% 29.79 in 10.0 mi SE 8.1 mph - 0.03 in Rain , Thunderstorm Rain
9:55 PM 59.0 °F 55.4 °F 88% 29.79 in 10.0 mi ESE 11.5 mph - 0.03 in Rain , Thunderstorm Thunderstorms and Rain
10:15 PM 59.0 °F 55.4 °F 88% 29.79 in 7.0 mi SE 6.9 mph - 0.04 in Rain , Thunderstorm Thunderstorms and Rain
10:35 PM 59.0 °F 57.2 °F 94% 29.79 in 3.0 mi East 11.5 mph - 0.23 in Rain , Thunderstorm Heavy Thunderstorms and Rain
10:55 PM 57.2 °F 57.2 °F 100% 29.78 in 10.0 mi ESE 9.2 mph - 0.31 in Rain Rain
11:15 PM 57.2 °F 57.2 °F 100% 29.76 in 10.0 mi East 12.7 mph - 0.04 in Rain Rain
11:35 PM 57.2 °F 57.2 °F 100% 29.76 in 3.0 mi East 15.0 mph - 0.17 in Rain , Thunderstorm Heavy Thunderstorms and Rain
11:55 PM 57.2 °F 57.2 °F 100% 29.77 in 5.0 mi East 6.9 mph 19.6 mph 0.33 in Rain , Thunderstorm Thunderstorms and Rain